Location: Caserta
(41.0670°N, 14.3330°E)
Time: 07:09:28
(UTC+02:00)

ISS - Visible Passes

Search period start: 10 May 2021 00:00
Search period end: 20 May 2021 00:00
Orbit: 417 x 421 km, 51.6° (Epoch: 09 May)

Date Brightness Start Highest point End Pass type
(mag) Time Alt. Az. Time Alt. Az. Time Alt. Az.
10 May -0.8 02:50:22 11° NNW 02:51:49 14° N 02:53:43 10° NNE visible
10 May -0.9 04:27:12 10° NNW 04:29:39 18° NNE 04:32:04 10° ENE visible
11 May -0.7 02:04:20 15° N 02:04:20 15° N 02:06:15 10° NNE visible
11 May -0.7 03:39:51 10° NNW 03:41:58 16° N 03:44:06 10° NE visible
11 May -2.4 05:16:12 10° NW 05:19:27 43° NNE 05:22:42 10° ESE visible
12 May -0.4 01:18:16 13° NNE 01:18:16 13° NNE 01:18:53 10° NNE visible
12 May -0.6 02:52:23 10° NNW 02:54:17 14° N 02:56:11 10° NE visible
12 May -1.7 04:28:52 10° NW 04:31:55 30° NNE 04:34:57 10° E visible
13 May -0.5 02:05:01 11° NNW 02:06:34 14° N 02:08:24 10° NNE visible
13 May -1.2 03:41:35 10° NW 03:44:20 23° NNE 03:47:05 10° ENE visible
14 May -0.5 01:18:37 14° N 01:18:53 14° N 01:20:45 10° NNE visible
14 May -0.8 02:54:15 10° NNW 02:56:41 18° NNE 02:59:08 10° ENE visible
14 May -3.4 04:30:36 10° NW 04:33:59 70° NE 04:37:21 10° ESE visible
14 May -2.7 21:14:17 10° S 21:17:02 24° SE 21:19:48 10° ENE visible
14 May -2.5 22:50:29 10° WSW 22:53:41 42° NNW 22:55:36 20° NNE visible
15 May -0.6 00:29:04 10° NW 00:31:10 15° N 00:33:17 10° NNE visible
15 May -0.6 02:06:52 10° NNW 02:09:01 16° N 02:11:09 10° NE visible
15 May -2.5 03:43:14 10° NW 03:46:29 43° NNE 03:49:44 10° ESE visible
15 May -3.4 22:02:52 10° WSW 22:06:11 67° NNW 22:09:33 10° NE visible
15 May -0.8 23:41:05 10° WNW 23:43:30 18° NNW 23:45:54 10° NNE visible
16 May -0.5 01:19:25 10° NNW 01:21:19 14° N 01:23:13 10° NE visible
16 May -1.8 02:55:54 10° NW 02:58:56 30° NNE 03:01:58 10° E visible
16 May -3.3 04:32:37 10° WNW 04:35:48 39° SW 04:38:58 10° SSE visible
16 May -3.9 21:15:24 10° SW 21:18:45 73° SE 21:22:06 10° ENE visible
16 May -1.1 22:53:09 10° WNW 22:55:51 22° NNW 22:58:34 10° NNE visible
17 May -0.4 00:31:48 10° NNW 00:33:36 14° N 00:35:25 10° NNE visible
17 May -1.3 02:08:35 10° NW 02:11:21 23° NNE 02:14:06 10° ENE visible
17 May -3.9 03:45:04 10° WNW 03:48:25 69° SW 03:51:46 10° SE visible
17 May -1.6 22:05:15 10° W 22:08:14 29° NNW 22:11:15 10° NE visible
17 May -0.5 23:44:00 10° NW 23:45:52 14° N 23:47:46 10° NNE visible
18 May -0.8 01:21:15 10° NNW 01:22:53 17° N 01:22:53 17° N visible
18 May -2.3 21:17:28 10° WSW 21:20:41 41° NNW 21:23:55 10° NE visible
18 May -0.6 22:56:05 10° NW 22:58:10 15° N 23:00:16 10° NNE visible
19 May -0.7 00:33:53 10° NNW 00:36:01 16° N 00:36:28 15° NNE visible
19 May -0.8 22:08:05 10° WNW 22:10:29 18° NNW 22:12:53 10° NNE visible
19 May -0.6 23:46:25 10° NNW 23:48:19 14° N 23:50:13 10° NE visible
